Time,TemperatureF,DewpointF,PressureIn,WindDirection,WindDirectionDegrees,WindSpeedMPH,WindSpeedGustMPH,Humidity,HourlyPrecipIn,Conditions,Clouds,dailyrainin,SoftwareType,DateUTC
2013-05-18 00:00:00,63.5,60.0,29.84,SSW,203,0.0,0.0,89,0.00,,,0.00,weatherlink.com 1.10,2013-05-18 05:00:00,
2013-05-18 00:15:00,63.3,60.0,29.84,SSW,203,0.0,0.0,90,0.00,,,0.00,weatherlink.com 1.10,2013-05-18 05:15:00,
2013-05-18 00:30:00,63.3,60.0,29.85,SSW,203,0.0,0.0,90,0.00,,,0.00,weatherlink.com 1.10,2013-05-18 05:30:00,
2013-05-18 00:45:00,63.0,60.0,29.85,SSW,203,0.0,0.0,90,0.00,,,0.00,weatherlink.com 1.10,2013-05-18 05:45:00,
2013-05-18 01:00:00,62.7,60.0,29.84,SSW,203,0.0,0.0,91,0.00,,,0.00,weatherlink.com 1.10,2013-05-18 06:00:00,
2013-05-18 01:15:00,62.6,60.0,29.84,SSW,203,0.0,0.0,91,0.00,,,0.00,weatherlink.com 1.10,2013-05-18 06:15:00,
2013-05-18 01:30:00,62.5,60.0,29.84,SSW,203,0.0,0.0,91,0.00,,,0.00,weatherlink.com 1.10,2013-05-18 06:30:00,
2013-05-18 01:45:00,62.3,60.0,29.84,SSW,203,0.0,0.0,91,0.00,,,0.00,weatherlink.com 1.10,2013-05-18 06:45:00,
2013-05-18 02:00:00,62.0,60.0,29.83,SSW,203,0.0,0.0,92,0.00,,,0.00,weatherlink.com 1.10,2013-05-18 07:00:00,
2013-05-18 02:15:00,61.7,60.0,29.83,SSW,203,0.0,0.0,93,0.00,,,0.00,weatherlink.com 1.10,2013-05-18 07:15:00,
2013-05-18 02:30:00,61.5,59.0,29.83,SSW,203,0.0,0.0,92,0.00,,,0.00,weatherlink.com 1.10,2013-05-18 07:30:00,
2013-05-18 02:45:00,61.4,59.0,29.83,SSW,203,0.0,0.0,93,0.00,,,0.00,weatherlink.com 1.10,2013-05-18 07:45:00,
2013-05-18 03:00:00,61.0,59.0,29.82,SSW,203,0.0,0.0,93,0.00,,,0.00,weatherlink.com 1.10,2013-05-18 08:00:00,
2013-05-18 03:15:00,60.6,59.0,29.82,SSW,203,0.0,0.0,94,0.00,,,0.00,weatherlink.com 1.10,2013-05-18 08:15:00,
2013-05-18 03:30:00,60.4,59.0,29.82,SSW,203,0.0,0.0,94,0.00,,,0.00,weatherlink.com 1.10,2013-05-18 08:30:00,
2013-05-18 03:45:00,60.2,59.0,29.82,SSW,203,0.0,0.0,94,0.00,,,0.00,weatherlink.com 1.10,2013-05-18 08:45:00,
2013-05-18 04:00:00,59.8,58.0,29.83,SSW,203,0.0,0.0,94,0.00,,,0.00,weatherlink.com 1.10,2013-05-18 09:00:00,
2013-05-18 04:15:00,59.8,58.0,29.82,SSW,203,0.0,0.0,95,0.00,,,0.00,weatherlink.com 1.10,2013-05-18 09:15:00,
2013-05-18 04:30:00,59.9,59.0,29.82,SSW,203,0.0,0.0,95,0.00,,,0.00,weatherlink.com 1.10,2013-05-18 09:30:00,
2013-05-18 04:45:00,59.9,59.0,29.82,SSW,203,0.0,0.0,95,0.00,,,0.00,weatherlink.com 1.10,2013-05-18 09:45:00,
2013-05-18 05:00:00,60.5,59.0,29.82,SSW,203,0.0,0.0,95,0.00,,,0.00,weatherlink.com 1.10,2013-05-18 10:00:00,
2013-05-18 05:15:00,60.6,59.0,29.82,SSW,203,0.0,0.0,95,0.00,,,0.00,weatherlink.com 1.10,2013-05-18 10:15:00,
2013-05-18 05:30:00,60.9,60.0,29.82,SSW,203,0.0,0.0,95,0.00,,,0.00,weatherlink.com 1.10,2013-05-18 10:30:00,
2013-05-18 05:45:00,61.0,60.0,29.82,SSW,203,0.0,0.0,95,0.00,,,0.00,weatherlink.com 1.10,2013-05-18 10:45:00,
2013-05-18 06:00:00,61.5,60.0,29.83,SSW,203,0.0,0.0,95,0.00,,,0.00,weatherlink.com 1.10,2013-05-18 11:00:00,
2013-05-18 06:15:00,62.4,61.0,29.83,SSW,203,0.0,0.0,94,0.00,,,0.00,weatherlink.com 1.10,2013-05-18 11:15:00,
2013-05-18 06:31:00,63.0,61.0,29.83,SSW,203,0.0,0.0,93,0.00,,,0.00,weatherlink.com 1.10,2013-05-18 11:31:00,
2013-05-18 06:45:00,63.6,61.0,29.84,SSW,208,0.0,1.0,92,0.00,,,0.00,weatherlink.com 1.10,2013-05-18 11:45:00,
2013-05-18 07:00:00,64.3,61.0,29.83,SSW,205,0.0,1.0,90,0.00,,,0.00,weatherlink.com 1.10,2013-05-18 12:00:00,
2013-05-18 07:15:00,64.7,62.0,29.83,SSW,205,0.0,0.0,89,0.00,,,0.00,weatherlink.com 1.10,2013-05-18 12:15:00,
2013-05-18 07:30:00,65.2,62.0,29.83,SSW,196,0.0,0.0,89,0.00,,,0.00,weatherlink.com 1.10,2013-05-18 12:30:00,
2013-05-18 07:45:00,66.0,62.0,29.83,SSW,196,0.0,0.0,88,0.00,,,0.00,weatherlink.com 1.10,2013-05-18 12:45:00,
2013-05-18 08:00:00,67.2,63.0,29.83,SSW,200,0.0,1.0,86,0.00,,,0.00,weatherlink.com 1.10,2013-05-18 13:00:00,
2013-05-18 08:16:00,68.4,63.0,29.83,SSW,209,0.0,0.0,83,0.00,,,0.00,weatherlink.com 1.10,2013-05-18 13:16:00,
2013-05-18 08:31:00,69.4,64.0,29.83,South,171,0.0,1.0,82,0.00,,,0.00,weatherlink.com 1.10,2013-05-18 13:31:00,
2013-05-18 08:46:00,70.5,64.0,29.82,SSW,205,0.0,1.0,81,0.00,,,0.00,weatherlink.com 1.10,2013-05-18 13:46:00,
2013-05-18 09:01:00,74.3,66.0,29.82,SE,128,0.0,1.0,76,0.00,,,0.00,weatherlink.com 1.10,2013-05-18 14:01:00,
2013-05-18 09:16:00,76.9,67.0,29.81,ESE,119,0.0,2.0,72,0.00,,,0.00,weatherlink.com 1.10,2013-05-18 14:16:00,
2013-05-18 09:31:00,78.2,67.0,29.81,SE,141,0.0,2.0,68,0.00,,,0.00,weatherlink.com 1.10,2013-05-18 14:31:00,
2013-05-18 09:46:00,79.8,67.0,29.81,SSE,156,0.0,3.0,65,0.00,,,0.00,weatherlink.com 1.10,2013-05-18 14:46:00,
2013-05-18 10:03:00,81.5,67.0,29.80,ESE,121,0.0,2.0,62,0.00,,,0.00,weatherlink.com 1.10,2013-05-18 15:03:00,
2013-05-18 10:16:00,82.5,68.0,29.80,SE,146,0.0,4.0,61,0.00,,,0.00,weatherlink.com 1.10,2013-05-18 15:16:00,
2013-05-18 10:32:00,81.7,67.0,29.80,SSE,156,0.0,5.0,61,0.00,,,0.00,weatherlink.com 1.10,2013-05-18 15:32:00,
2013-05-18 10:46:00,83.1,67.0,29.80,SE,144,0.0,4.0,58,0.00,,,0.00,weatherlink.com 1.10,2013-05-18 15:46:00,
2013-05-18 11:02:00,84.0,67.0,29.79,SSE,162,0.0,5.0,56,0.00,,,0.00,weatherlink.com 1.10,2013-05-18 16:02:00,
2013-05-18 11:17:00,84.8,66.0,29.81,SSE,165,1.0,6.0,54,0.00,,,0.00,weatherlink.com 1.10,2013-05-18 16:17:00,
2013-05-18 11:32:00,86.8,67.0,29.81,SSW,201,1.0,4.0,52,0.00,,,0.00,weatherlink.com 1.10,2013-05-18 16:32:00,
2013-05-18 11:47:00,85.4,67.0,29.79,ESE,111,0.0,3.0,55,0.00,,,0.00,weatherlink.com 1.10,2013-05-18 16:47:00,
2013-05-18 12:02:00,85.2,67.0,29.79,SW,215,2.0,6.0,55,0.00,,,0.00,weatherlink.com 1.10,2013-05-18 17:02:00,
2013-05-18 12:17:00,85.4,67.0,29.79,South,184,2.0,6.0,54,0.00,,,0.00,weatherlink.com 1.10,2013-05-18 17:17:00,
2013-05-18 12:32:00,84.2,66.0,29.78,SSE,162,0.0,5.0,55,0.00,,,0.00,weatherlink.com 1.10,2013-05-18 17:32:00,
2013-05-18 12:47:00,83.7,67.0,29.78,SE,134,1.0,3.0,57,0.00,,,0.00,weatherlink.com 1.10,2013-05-18 17:47:00,
2013-05-18 13:02:00,82.9,67.0,29.78,East,89,0.0,2.0,58,0.00,,,0.00,weatherlink.com 1.10,2013-05-18 18:02:00,
2013-05-18 13:17:00,82.8,67.0,29.78,South,176,0.0,4.0,60,0.00,,,0.00,weatherlink.com 1.10,2013-05-18 18:17:00,
2013-05-18 13:32:00,83.0,67.0,29.78,South,169,0.0,4.0,59,0.00,,,0.00,weatherlink.com 1.10,2013-05-18 18:32:00,
2013-05-18 13:47:00,83.3,67.0,29.77,ESE,120,0.0,3.0,59,0.00,,,0.00,weatherlink.com 1.10,2013-05-18 18:47:00,
2013-05-18 14:02:00,85.0,68.0,29.76,SSW,211,3.0,3.0,57,0.00,,,0.00,weatherlink.com 1.10,2013-05-18 19:02:00,
2013-05-18 14:17:00,86.4,69.0,29.76,ENE,74,0.0,4.0,57,0.00,,,0.00,weatherlink.com 1.10,2013-05-18 19:17:00,
2013-05-18 14:32:00,87.2,69.0,29.76,SW,235,0.0,4.0,55,0.00,,,0.00,weatherlink.com 1.10,2013-05-18 19:32:00,
2013-05-18 14:47:00,87.3,70.0,29.75,SSW,193,0.0,4.0,56,0.00,,,0.00,weatherlink.com 1.10,2013-05-18 19:47:00,
2013-05-18 15:02:00,87.9,70.0,29.74,SSE,151,0.0,5.0,56,0.00,,,0.00,weatherlink.com 1.10,2013-05-18 20:02:00,
2013-05-18 15:17:00,86.6,69.0,29.74,SSW,198,0.0,3.0,56,0.00,,,0.00,weatherlink.com 1.10,2013-05-18 20:17:00,
2013-05-18 15:32:00,85.3,69.0,29.74,NW,304,0.0,3.0,59,0.00,,,0.00,weatherlink.com 1.10,2013-05-18 20:32:00,
2013-05-18 15:47:00,84.7,70.0,29.74,SE,127,0.0,2.0,61,0.00,,,0.00,weatherlink.com 1.10,2013-05-18 20:47:00,
2013-05-18 16:03:00,84.4,69.0,29.73,SE,129,0.0,3.0,61,0.00,,,0.00,weatherlink.com 1.10,2013-05-18 21:03:00,
2013-05-18 16:17:00,84.2,70.0,29.73,SE,129,0.0,1.0,63,0.00,,,0.00,weatherlink.com 1.10,2013-05-18 21:17:00,
2013-05-18 16:32:00,84.5,70.0,29.73,WNW,301,0.0,3.0,62,0.00,,,0.00,weatherlink.com 1.10,2013-05-18 21:32:00,
2013-05-18 16:47:00,83.9,70.0,29.72,East,101,0.0,3.0,63,0.00,,,0.00,weatherlink.com 1.10,2013-05-18 21:47:00,
2013-05-18 17:02:00,84.2,71.0,29.71,SE,134,0.0,1.0,64,0.00,,,0.00,weatherlink.com 1.10,2013-05-18 22:02:00,
2013-05-18 17:17:00,84.2,70.0,29.72,SE,125,0.0,4.0,62,0.00,,,0.00,weatherlink.com 1.10,2013-05-18 22:17:00,
2013-05-18 17:32:00,84.0,71.0,29.71,SSE,162,2.0,5.0,64,0.00,,,0.00,weatherlink.com 1.10,2013-05-18 22:32:00,
2013-05-18 17:47:00,83.8,70.0,29.71,NNW,336,2.0,5.0,63,0.00,,,0.00,weatherlink.com 1.10,2013-05-18 22:47:00,
2013-05-18 18:02:00,83.2,70.0,29.70,SSE,149,0.0,1.0,65,0.00,,,0.00,weatherlink.com 1.10,2013-05-18 23:02:00,
2013-05-18 18:18:00,83.8,71.0,29.69,ENE,76,0.0,1.0,66,0.00,,,0.00,weatherlink.com 1.10,2013-05-18 23:18:00,
2013-05-18 18:33:00,83.4,70.0,29.68,ESE,115,0.0,3.0,64,0.00,,,0.00,weatherlink.com 1.10,2013-05-18 23:33:00,
2013-05-18 18:48:00,82.2,70.0,29.69,SSW,203,0.0,3.0,66,0.00,,,0.00,weatherlink.com 1.10,2013-05-18 23:48:00,
2013-05-18 19:03:00,81.4,70.0,29.68,East,96,0.0,2.0,68,0.00,,,0.00,weatherlink.com 1.10,2013-05-19 00:03:00,
2013-05-18 19:18:00,81.1,70.0,29.68,WSW,238,0.0,3.0,70,0.00,,,0.00,weatherlink.com 1.10,2013-05-19 00:18:00,
2013-05-18 19:33:00,80.7,70.0,29.66,East,88,0.0,5.0,70,0.00,,,0.00,weatherlink.com 1.10,2013-05-19 00:33:00,
2013-05-18 19:48:00,79.9,70.0,29.65,ESE,120,0.0,3.0,71,0.00,,,0.00,weatherlink.com 1.10,2013-05-19 00:48:00,
2013-05-18 20:03:00,79.0,70.0,29.65,SSE,148,0.0,4.0,73,0.00,,,0.00,weatherlink.com 1.10,2013-05-19 01:03:00,
2013-05-18 20:18:00,78.4,70.0,29.66,SSE,160,0.0,1.0,74,0.00,,,0.00,weatherlink.com 1.10,2013-05-19 01:18:00,
2013-05-18 20:33:00,77.8,69.0,29.66,SW,229,0.0,2.0,75,0.00,,,0.00,weatherlink.com 1.10,2013-05-19 01:33:00,
2013-05-18 20:48:00,77.6,70.0,29.65,SSW,201,0.0,1.0,76,0.00,,,0.00,weatherlink.com 1.10,2013-05-19 01:48:00,
2013-05-18 21:03:00,77.2,70.0,29.65,SSE,150,0.0,2.0,77,0.00,,,0.00,weatherlink.com 1.10,2013-05-19 02:03:00,
2013-05-18 21:18:00,77.0,69.0,29.66,SE,132,0.0,2.0,77,0.00,,,0.00,weatherlink.com 1.10,2013-05-19 02:18:00,
2013-05-18 21:33:00,77.0,70.0,29.67,SE,146,0.0,0.0,78,0.00,,,0.00,weatherlink.com 1.10,2013-05-19 02:33:00,
2013-05-18 21:48:00,76.9,70.0,29.67,NNW,331,0.0,2.0,78,0.00,,,0.00,weatherlink.com 1.10,2013-05-19 02:48:00,
2013-05-18 22:03:00,76.9,70.0,29.66,South,188,0.0,3.0,78,0.00,,,0.00,weatherlink.com 1.10,2013-05-19 03:03:00,
2013-05-18 22:18:00,76.6,70.0,29.67,South,186,0.0,2.0,79,0.00,,,0.00,weatherlink.com 1.10,2013-05-19 03:18:00,
2013-05-18 22:33:00,76.7,70.0,29.67,West,261,0.0,5.0,79,0.00,,,0.00,weatherlink.com 1.10,2013-05-19 03:33:00,
2013-05-18 22:48:00,76.5,70.0,29.67,SE,127,0.0,2.0,80,0.00,,,0.00,weatherlink.com 1.10,2013-05-19 03:48:00,
2013-05-18 23:03:00,76.4,70.0,29.67,SE,131,0.0,2.0,81,0.00,,,0.00,weatherlink.com 1.10,2013-05-19 04:03:00,
2013-05-18 23:18:00,76.4,71.0,29.67,South,181,0.0,1.0,82,0.00,,,0.00,weatherlink.com 1.10,2013-05-19 04:18:00,
2013-05-18 23:33:00,76.0,71.0,29.67,SSW,196,0.0,1.0,84,0.00,,,0.00,weatherlink.com 1.10,2013-05-19 04:33:00,
2013-05-18 23:48:00,75.9,71.0,29.70,SSW,194,0.0,5.0,84,0.00,,,0.00,weatherlink.com 1.10,2013-05-19 04:48:00,